When you browse on this site, cookies collect data to enhance your experience and personalize the content and advertising you see.
Visit our Privacy Policy to learn more. By continuing to use the site, you agree to this use of cookies and data.
  • En España
  • Lista de países
  • Para 7 días
  • Temperatura del agua
  • Mapa Satelital
  • El tiempo en el mapa
  • Informadores
  • user-avatar
    Iniciar sesión

    Tiempo cada hora Bor

    Hoy, 17 Diciembre, Lunes

    Tiempo Temperatura Precipitaciones Viento Presión Humedad
    00:00 +5°C° 0 mm 2 mps 764 mmHg 60%
    01:00 +5°C° 0 mm 2 mps 764 mmHg 58%
    02:00 +5°C° 0 mm 2 mps 763 mmHg 57%
    03:00 +6°C° 0 mm 2 mps 763 mmHg 57%
    04:00 +5°C° 0 mm 3 mps 763 mmHg 57%
    05:00 +5°C° 0.2 mm 3 mps 762 mmHg 59%
    06:00 +5°C° 0.2 mm 3 mps 762 mmHg 60%
    07:00 +5°C° 0.2 mm 3 mps 762 mmHg 62%
    08:00 +5°C° 0.9 mm 4 mps 761 mmHg 69%
    09:00 +5°C° 0.9 mm 4 mps 761 mmHg 75%
    10:00 +5°C° 0.9 mm 5 mps 761 mmHg 82%
    11:00 +5°C° 0.4 mm 5 mps 761 mmHg 84%
    12:00 +6°C° 0.4 mm 5 mps 760 mmHg 86%
    13:00 +6°C° 0.4 mm 5 mps 760 mmHg 88%
    14:00 +6°C° 0.9 mm 5 mps 760 mmHg 87%
    15:00 +5°C° 0.9 mm 6 mps 759 mmHg 87%
    16:00 +5°C° 0.9 mm 6 mps 759 mmHg 87%
    17:00 +5°C° 2 mm 6 mps 760 mmHg 86%
    18:00 +4°C° 2 mm 6 mps 760 mmHg 86%
    19:00 +4°C° 2 mm 7 mps 760 mmHg 86%
    20:00 +4°C° 0.6 mm 7 mps 761 mmHg 83%
    21:00 +3°C° 0.6 mm 7 mps 761 mmHg 81%
    22:00 +3°C° 0.6 mm 7 mps 762 mmHg 79%
    23:00 +3°C° 0.2 mm 7 mps 762 mmHg 78%

    Mañana, 18 Diciembre, Martes

    Tiempo Temperatura Precipitaciones Viento Presión Humedad
    00:00 +3°C° 0.2 mm 7 mps 763 mmHg 78%
    01:00 +2°C° 0.2 mm 7 mps 763 mmHg 77%
    02:00 +2°C° 0 mm 6 mps 763 mmHg 76%
    03:00 +2°C° 0 mm 6 mps 763 mmHg 76%
    04:00 +2°C° 0 mm 6 mps 763 mmHg 76%
    05:00 +2°C° 0 mm 6 mps 764 mmHg 76%
    06:00 +2°C° 0 mm 6 mps 764 mmHg 75%
    07:00 +2°C° 0 mm 6 mps 765 mmHg 75%
    08:00 +3°C° 0 mm 6 mps 765 mmHg 75%
    09:00 +5°C° 0 mm 5 mps 765 mmHg 75%
    10:00 +5°C° 0 mm 5 mps 766 mmHg 76%
    11:00 +6°C° 0 mm 5 mps 766 mmHg 76%
    12:00 +6°C° 0 mm 5 mps 765 mmHg 76%
    13:00 +7°C° 0 mm 4 mps 765 mmHg 77%
    14:00 +6°C° 0 mm 4 mps 766 mmHg 76%
    15:00 +5°C° 0 mm 4 mps 766 mmHg 76%
    16:00 +5°C° 0 mm 4 mps 766 mmHg 76%
    17:00 +4°C° 0 mm 4 mps 767 mmHg 77%
    18:00 +4°C° 0 mm 4 mps 767 mmHg 77%
    19:00 +3°C° 0 mm 4 mps 767 mmHg 78%
    20:00 +3°C° 0 mm 4 mps 768 mmHg 78%
    21:00 +3°C° 0 mm 4 mps 768 mmHg 78%
    22:00 +3°C° 0 mm 4 mps 768 mmHg 78%
    23:00 +1°C° 0 mm 4 mps 768 mmHg 79%

    Pasado mañana, 19 Diciembre, Miércoles

    Tiempo Temperatura Precipitaciones Viento Presión Humedad
    00:00 +1°C° 0 mm 4 mps 768 mmHg 79%
    01:00 +1°C° 0 mm 4 mps 768 mmHg 79%
    02:00 +2°C° 0 mm 3 mps 768 mmHg 78%
    03:00 +2°C° 0 mm 3 mps 768 mmHg 78%
    04:00 +2°C° 0 mm 3 mps 768 mmHg 77%
    05:00 +2°C° 0 mm 3 mps 768 mmHg 76%
    06:00 +2°C° 0 mm 3 mps 768 mmHg 76%
    07:00 +3°C° 0 mm 2 mps 768 mmHg 75%
    08:00 +5°C° 0 mm 2 mps 768 mmHg 76%
    09:00 +7°C° 0 mm 2 mps 768 mmHg 76%
    10:00 +8°C° 0 mm 2 mps 768 mmHg 77%
    11:00 +10°C° 0 mm 1 mps 768 mmHg 76%
    12:00 +10°C° 0 mm 1 mps 767 mmHg 74%
    13:00 +10°C° 0 mm 0 mps 767 mmHg 73%
    14:00 +9°C° 0 mm 0 mps 767 mmHg 75%
    15:00 +8°C° 0 mm 0 mps 767 mmHg 76%
    16:00 +7°C° 0 mm 0 mps 767 mmHg 78%
    17:00 +7°C° 0 mm 1 mps 767 mmHg 77%
    18:00 +7°C° 0 mm 1 mps 768 mmHg 76%
    19:00 +7°C° 0 mm 1 mps 768 mmHg 76%
    20:00 +6°C° 0 mm 2 mps 768 mmHg 75%
    21:00 +6°C° 0 mm 2 mps 768 mmHg 74%
    22:00 +5°C° 0 mm 2 mps 768 mmHg 73%
    23:00 +5°C° 0 mm 2 mps 768 mmHg 72%

    20 Diciembre, Jueves

    Tiempo Temperatura Precipitaciones Viento Presión Humedad
    00:00 +5°C° 0 mm 2 mps 768 mmHg 71%
    01:00 +4°C° 0 mm 3 mps 768 mmHg 71%
    02:00 +4°C° 0 mm 3 mps 768 mmHg 70%
    03:00 +4°C° 0 mm 3 mps 767 mmHg 69%
    04:00 +4°C° 0 mm 3 mps 767 mmHg 68%
    05:00 +4°C° 0 mm 3 mps 767 mmHg 67%
    06:00 +4°C° 0 mm 4 mps 767 mmHg 67%
    07:00 +4°C° 0 mm 4 mps 768 mmHg 66%
    08:00 +5°C° 0 mm 4 mps 767 mmHg 67%
    09:00 +6°C° 0 mm 4 mps 767 mmHg 67%
    10:00 +8°C° 0 mm 4 mps 767 mmHg 68%
    11:00 +8°C° 0 mm 4 mps 767 mmHg 68%
    12:00 +9°C° 0 mm 5 mps 766 mmHg 68%
    13:00 +9°C° 0 mm 5 mps 765 mmHg 68%
    14:00 +9°C° 0.2 mm 5 mps 765 mmHg 72%
    15:00 +8°C° 0.2 mm 5 mps 765 mmHg 76%
    16:00 +8°C° 0.2 mm 5 mps 765 mmHg 80%
    17:00 +8°C° 0.8 mm 5 mps 765 mmHg 82%
    18:00 +8°C° 0.8 mm 5 mps 765 mmHg 83%
    19:00 +8°C° 0.8 mm 5 mps 765 mmHg 85%
    20:00 +8°C° 0.7 mm 4 mps 765 mmHg 87%
    21:00 +8°C° 0.7 mm 4 mps 765 mmHg 89%
    22:00 +9°C° 0.7 mm 3 mps 765 mmHg 91%
    23:00 +9°C° 0.3 mm 3 mps 765 mmHg 91%

    21 Diciembre, Viernes

    Tiempo Temperatura Precipitaciones Viento Presión Humedad
    00:00 +9°C° 0.3 mm 3 mps 765 mmHg 92%
    01:00 +9°C° 0.3 mm 3 mps 765 mmHg 93%
    02:00 +9°C° 0.1 mm 3 mps 765 mmHg 93%
    03:00 +9°C° 0.1 mm 3 mps 765 mmHg 94%
    04:00 +9°C° 0.1 mm 3 mps 765 mmHg 94%
    05:00 +9°C° 0.1 mm 2 mps 766 mmHg 93%
    06:00 +8°C° 0.1 mm 2 mps 766 mmHg 92%
    07:00 +8°C° 0.1 mm 2 mps 766 mmHg 92%
    08:00 +9°C° 0.2 mm 2 mps 767 mmHg 89%
    09:00 +10°C° 0.2 mm 2 mps 767 mmHg 86%
    10:00 +10°C° 0.2 mm 2 mps 767 mmHg 83%
    11:00 +12°C° 0.1 mm 2 mps 767 mmHg 80%
    12:00 +12°C° 0.1 mm 2 mps 767 mmHg 77%
    13:00 +13°C° 0.1 mm 1 mps 766 mmHg 74%
    14:00 +12°C° 0 mm 2 mps 767 mmHg 75%
    15:00 +10°C° 0 mm 2 mps 767 mmHg 77%
    16:00 +9°C° 0 mm 2 mps 767 mmHg 78%
    17:00 +9°C° 0 mm 2 mps 768 mmHg 79%
    18:00 +8°C° 0 mm 3 mps 768 mmHg 80%
    19:00 +7°C° 0 mm 3 mps 769 mmHg 80%
    20:00 +7°C° 0 mm 2 mps 769 mmHg 80%
    21:00 +7°C° 0 mm 2 mps 769 mmHg 79%
    22:00 +6°C° 0 mm 2 mps 769 mmHg 79%
    23:00 +6°C° 0 mm 2 mps 769 mmHg 78%

    22 Diciembre, Sábado

    Tiempo Temperatura Precipitaciones Viento Presión Humedad
    00:00 +6°C° 0 mm 2 mps 769 mmHg 77%
    01:00 +6°C° 0 mm 2 mps 769 mmHg 76%
    02:00 +6°C° 0 mm 2 mps 769 mmHg 76%
    03:00 +6°C° 0 mm 2 mps 769 mmHg 76%
    04:00 +6°C° 0 mm 2 mps 769 mmHg 76%
    05:00 +6°C° 0 mm 2 mps 769 mmHg 76%
    06:00 +6°C° 0 mm 2 mps 769 mmHg 76%
    07:00 +6°C° 0 mm 2 mps 769 mmHg 76%
    08:00 +7°C° 0 mm 2 mps 769 mmHg 75%
    09:00 +8°C° 0 mm 2 mps 769 mmHg 74%
    10:00 +9°C° 0 mm 2 mps 769 mmHg 73%
    11:00 +10°C° 0 mm 2 mps 769 mmHg 75%
    12:00 +10°C° 0 mm 2 mps 769 mmHg 77%
    13:00 +10°C° 0 mm 2 mps 769 mmHg 79%
    14:00 +10°C° 0 mm 2 mps 769 mmHg 81%
    15:00 +9°C° 0 mm 2 mps 769 mmHg 83%
    16:00 +10°C° 0 mm 1 mps 769 mmHg 86%
    17:00 +9°C° 0 mm 2 mps 769 mmHg 85%
    18:00 +8°C° 0 mm 2 mps 770 mmHg 85%
    19:00 +8°C° 0 mm 2 mps 770 mmHg 84%
    20:00 +8°C° 0 mm 2 mps 770 mmHg 83%
    21:00 +8°C° 0 mm 2 mps 770 mmHg 83%
    22:00 +8°C° 0 mm 2 mps 770 mmHg 82%
    23:00 +8°C° 0 mm 2 mps 770 mmHg 82%
    Mostrar más